Location: Igloolik
(69.3800°N, 81.8000°W)
Time: 11:32:31
(UTC-05:00)

Amateur Radio Satellites - All Passes

Search period start: 02 July 2015 11:02
Search period end: 03 July 2015 11:02
Location: Igloolik, 69.3800°N, 81.8000°W

Satellite Date Start Highest point End Downlink Frequencies (MHz)
Time Altitude Azimuth
DELFI C3 02 Jul 11:02:59 11:07:05 74° 109° (ESE) 11:11:10 145.870
DOVE 4 02 Jul 11:03:40 11:07:53 49° 307° (NW) 11:11:57 437.250
BUGSAT 1 02 Jul 11:04:42 11:08:46 45° 259° (W) 11:12:49 437.445
HORYU 2 02 Jul 11:06:22 11:09:36 20° 17° (NNE) 11:12:50 437.375
QB50P2 02 Jul 11:08:45 11:12:41 35° 264° (W) 11:16:36 145.880/145.840
POPSAT HIP 1 02 Jul 11:10:08 11:14:04 35° 264° (W) 11:17:59 437.405
VELOX 1 02 Jul 11:15:42 11:19:49 34° 95° (E) 11:23:53 145.980
ANTELSAT 02 Jul 11:18:12 11:21:34 22° 274° (W) 11:24:54 437.575/2403.000
TISAT 1 02 Jul 11:19:48 11:21:32 12° 74° (ENE) 11:23:22 437.305
JAS-2 02 Jul 11:19:59 11:24:42 31° 22° (NNE) 11:29:51 435.910
CUTE-I 02 Jul 11:20:02 11:24:29 27° 343° (NNW) 11:28:55 437.470
50 SAT 02 Jul 11:23:31 11:27:12 39° 99° (E) 11:30:53 437.505
AIST 2 02 Jul 11:26:17 11:30:10 34° 154° (SSE) 11:34:02 435.215
TIGRISAT 02 Jul 11:32:09 11:35:15 19° 277° (W) 11:38:18 435.000
HO-68 02 Jul 11:33:22 11:40:29 69° 313° (NW) 11:47:35 435.675
DX 1 02 Jul 11:34:48 11:39:08 56° 105° (ESE) 11:43:28 434.975-435.025
CUBEBUG 2 02 Jul 11:35:33 11:39:43 66° 300° (WNW) 11:43:52 437.445
CUSAT 1 02 Jul 11:35:55 11:40:03 26° 324° (NW) 11:43:22 437.405
GOMX 1 02 Jul 11:45:22 11:49:20 30° 322° (NW) 11:53:06 467.674
SEEDS 02 Jul 11:48:27 11:52:20 35° 314° (NW) 11:56:13 437.485
ZACube-1 02 Jul 11:48:38 11:52:48 71° 298° (WNW) 11:56:59 437.345
QB50P1 02 Jul 11:50:30 11:53:52 22° 274° (W) 11:57:11 145.935-145.965
BEESAT 3 02 Jul 11:52:59 11:56:56 45° 175° (S) 12:00:52 437.485
Cubesat XI-IV 02 Jul 11:53:15 11:57:34 25° 351° (N) 12:01:53 437.490
O/OREOS (USA 219) 02 Jul 11:56:10 12:00:40 66° 349° (N) 12:05:10 437.305
YUBILEINY 02 Jul 11:56:56 12:05:26 51° 41° (NE) 12:13:57 435.215
BRITE-PL 02 Jul 11:57:17 12:01:16 26° 330° (NNW) 12:05:00 437.365/2234.400
Gurwin Techsat 1B 02 Jul 11:58:39 12:03:49 54° 50° (NE) 12:09:02 435.225
UKube-1 02 Jul 11:59:35 12:03:58 73° 111° (ESE) 12:08:19 .
Cosmos 2504 02 Jul 12:00:10 12:06:28 31° 5° (N) 12:13:02 435.465 / 435.565
BEESAT 2 02 Jul 12:01:40 12:05:38 45° 175° (S) 12:09:36 435.950
AISAT 02 Jul 12:02:02 12:06:29 61° 107° (ESE) 12:10:52 437.250
Oscar 11 02 Jul 12:03:02 12:07:15 50° 307° (NW) 12:11:28 145.826/435.025
SPROUT 02 Jul 12:03:11 12:06:48 26° 89° (E) 12:10:26 437.525
AAUSAT CUBESAT 2 02 Jul 12:05:49 12:09:38 34° 314° (NW) 12:13:28 437.432
NANOSAT C BR1 02 Jul 12:06:15 12:09:17 19° 277° (W) 12:12:16 145.865
CINEMA 3 02 Jul 12:07:42 12:11:33 35° 314° (NW) 12:15:21 145.822/145.860
BEESAT 02 Jul 12:12:22 12:13:50 11° 68° (ENE) 12:15:26 436.000
UNISAT 6 02 Jul 12:12:56 12:14:40 12° 288° (WNW) 12:16:15 437.425
Oscar 19 02 Jul 12:12:58 12:18:09 83° 249° (WSW) 12:23:20 437.125/150
DUCHIFAT 1 02 Jul 12:14:22 12:17:13 17° 279° (W) 12:20:00 145.980
AO-7 02 Jul 12:16:06 12:24:14 59° 30° (NNE) 12:32:25 29.400- 29.500
POLYITAN 1 02 Jul 12:16:26 12:19:11 16° 280° (W) 12:21:52 437.675
ITAMSAT 1 02 Jul 12:18:58 12:24:09 63° 54° (NE) 12:29:22 435.822/435.867
DANDE 02 Jul 12:22:55 12:27:28 25° 331° (NNW) 12:31:03 436.750
ESTCUBE 1 02 Jul 12:25:08 12:29:43 65° 108° (ESE) 12:34:16 437.505/2401.250
FUNcube-1 02 Jul 12:26:02 12:30:03 47° 307° (NW) 12:34:06 145.935
RS-15 02 Jul 12:26:27 12:35:51 31° 248° (WSW) 12:45:22 29.354- 29.394
SWISSCUBE 02 Jul 12:26:59 12:29:28 14° 73° (ENE) 12:32:04 437.505
Cosmos 2499 02 Jul 12:27:32 12:34:38 78° 296° (WNW) 12:42:05 435.465 / 435.565
HUMSAT D 02 Jul 12:27:39 12:31:46 66° 300° (WNW) 12:35:53 437.325/437.525
CUBEBUG 1 02 Jul 12:27:46 12:32:10 62° 107° (ESE) 12:36:32 437.445
COMPASS 1 02 Jul 12:29:51 12:33:27 27° 322° (NW) 12:37:01 437.405
ITUPSAT 1 02 Jul 12:31:05 12:33:34 14° 73° (ENE) 12:36:10 437.325
CUTE 1.7 + AOD 2 02 Jul 12:32:00 12:35:28 24° 326° (NW) 12:38:55 437.475
UWE-3 02 Jul 12:32:00 12:35:56 40° 310° (NW) 12:39:51 435.000/436.395/437.385
GONETS M04 02 Jul 12:32:50 12:41:18 48° 323° (NW) 12:49:43
CANX-2 02 Jul 12:34:59 12:38:23 23° 328° (NNW) 12:41:46 2200.000
DELFI C3 02 Jul 12:38:13 12:42:00 37° 312° (NW) 12:45:47 145.870
Cosmos 2491 02 Jul 12:40:17 12:46:17 21° 55° (NE) 12:52:27 435.465 / 435.565
HORYU 2 02 Jul 12:41:20 12:45:18 33° 40° (NE) 12:49:19 437.375
DOVE 4 02 Jul 12:41:31 12:44:59 23° 330° (NNW) 12:48:19 437.250
BUGSAT 1 02 Jul 12:42:51 12:45:17 15° 282° (WNW) 12:47:38 437.445
QB50P2 02 Jul 12:48:23 12:49:52 11° 288° (WNW) 12:51:15 145.880/145.840
POPSAT HIP 1 02 Jul 12:49:45 12:51:14 11° 288° (WNW) 12:52:36 437.405
VELOX 1 02 Jul 12:52:17 12:56:47 79° 298° (WNW) 13:01:13 145.980
TISAT 1 02 Jul 12:54:34 12:58:32 38° 98° (E) 13:02:29 437.305
50 SAT 02 Jul 12:58:11 13:02:02 60° 301° (WNW) 13:05:52 437.505
CUTE-I 02 Jul 12:59:04 13:03:22 25° 7° (N) 13:07:40 437.470
JAS-2 02 Jul 13:03:51 13:09:02 55° 48° (NE) 13:14:45 435.910
AIST 2 02 Jul 13:04:06 13:08:14 46° 176° (S) 13:12:19 435.215
DX 1 02 Jul 13:11:10 13:15:26 50° 309° (NW) 13:19:40 434.975-435.025
CUBEBUG 2 02 Jul 13:12:26 13:15:58 27° 322° (NW) 13:19:28 437.445
HO-68 02 Jul 13:20:56 13:27:35 43° 338° (NNW) 13:34:14 435.675
CUSAT 1 02 Jul 13:21:08 13:23:54 16° 349° (N) 13:26:17 437.405
GOMX 1 02 Jul 13:23:15 13:26:27 19° 346° (NNW) 13:29:30 467.674
SEEDS 02 Jul 13:24:16 13:27:16 19° 337° (NNW) 13:30:16 437.485
ZACube-1 02 Jul 13:25:10 13:28:45 28° 321° (NW) 13:32:19 437.345
BEESAT 3 02 Jul 13:30:35 13:34:26 39° 198° (SSW) 13:38:16 437.485
Cubesat XI-IV 02 Jul 13:32:03 13:36:28 27° 16° (NNE) 13:40:54 437.490
BRITE-PL 02 Jul 13:35:13 13:38:36 19° 355° (N) 13:41:51 437.365/2234.400
UKube-1 02 Jul 13:35:51 13:39:58 41° 313° (NW) 13:44:03 .
O/OREOS (USA 219) 02 Jul 13:35:58 13:40:28 67° 12° (NNE) 13:44:59 437.305
Gurwin Techsat 1B 02 Jul 13:38:32 13:43:50 65° 252° (WSW) 13:49:11 435.225
AISAT 02 Jul 13:38:45 13:43:04 48° 309° (NW) 13:47:20 437.250
SPROUT 02 Jul 13:39:10 13:43:30 82° 112° (ESE) 13:47:48 437.525
Oscar 11 02 Jul 13:39:18 13:42:47 24° 329° (NNW) 13:46:13 145.826/435.025
BEESAT 2 02 Jul 13:39:22 13:43:15 39° 198° (SSW) 13:47:06 435.950
AAUSAT CUBESAT 2 02 Jul 13:41:26 13:44:22 19° 337° (NNW) 13:47:18 437.432
CINEMA 3 02 Jul 13:44:56 13:47:55 19° 337° (NNW) 13:50:50 145.822/145.860
BEESAT 02 Jul 13:48:56 13:53:16 32° 93° (E) 13:57:36 436.000
Oscar 19 02 Jul 13:53:38 13:58:11 31° 270° (W) 14:02:44 437.125/150
YUBILEINY 02 Jul 13:54:25 14:03:13 89° 247° (WSW) 14:12:02 435.215
Cosmos 2504 02 Jul 13:55:06 14:01:57 41° 35° (NE) 14:09:12 435.465 / 435.565
ITAMSAT 1 02 Jul 13:58:45 14:03:52 52° 257° (WSW) 14:09:02 435.822/435.867
ESTCUBE 1 02 Jul 14:02:08 14:06:32 46° 310° (NW) 14:10:54 437.505/2401.250
FUNcube-1 02 Jul 14:02:30 14:05:43 22° 329° (NNW) 14:08:57 145.935
HUMSAT D 02 Jul 14:03:34 14:07:03 26° 322° (NW) 14:10:31 437.325/437.525
SWISSCUBE 02 Jul 14:04:10 14:08:43 39° 97° (E) 14:13:15 437.505
CUBEBUG 1 02 Jul 14:04:15 14:08:31 47° 309° (NW) 14:12:43 437.445
KKS-1 02 Jul 14:04:39 14:07:24 16° 78° (ENE) 14:10:14 437.445
COMPASS 1 02 Jul 14:05:24 14:08:06 17° 345° (NNW) 14:10:47 437.405
CUTE 1.7 + AOD 2 02 Jul 14:07:39 14:10:17 16° 349° (N) 14:12:55 437.475
ITUPSAT 1 02 Jul 14:08:18 14:12:51 39° 97° (E) 14:17:24 437.325
AO-7 02 Jul 14:08:26 14:16:51 87° 236° (SW) 14:25:20 29.400- 29.500
DANDE 02 Jul 14:08:36 14:12:04 19° 357° (N) 14:14:56 436.750
UWE-3 02 Jul 14:08:39 14:11:43 20° 334° (NNW) 14:14:45 435.000/436.395/437.385
CANX-2 02 Jul 14:10:35 14:13:12 16° 351° (N) 14:15:47 2200.000
AIST 1 02 Jul 14:11:43 14:14:10 15° 75° (ENE) 14:16:43
DELFI C3 02 Jul 14:13:24 14:16:18 19° 334° (NNW) 14:19:10 145.870
HORYU 2 02 Jul 14:17:10 14:21:37 82° 63° (ENE) 14:26:05 437.375
DOVE 4 02 Jul 14:18:49 14:21:35 17° 355° (N) 14:24:17 437.250
Cosmos 2499 02 Jul 14:22:11 14:28:53 41° 325° (NW) 14:35:55 435.465 / 435.565
VELOX 1 02 Jul 14:28:59 14:32:58 32° 321° (NW) 14:36:54 145.980
TISAT 1 02 Jul 14:30:22 14:34:36 69° 300° (WNW) 14:38:47 437.305
GONETS M04 02 Jul 14:32:28 14:40:26 36° 353° (N) 14:48:21
Cosmos 2491 02 Jul 14:32:56 14:41:04 45° 83° (E) 14:49:15 435.465 / 435.565
50 SAT 02 Jul 14:33:01 14:36:09 24° 323° (NW) 14:39:18 437.505
CUTE-I 02 Jul 14:37:34 14:42:22 34° 32° (NNE) 14:47:12 437.470
RS-15 02 Jul 14:39:52 14:44:12 12° 277° (W) 14:48:03 29.354- 29.394
AIST 2 02 Jul 14:42:20 14:46:21 39° 199° (SSW) 14:50:18 435.215
DX 1 02 Jul 14:47:28 14:51:02 24° 331° (NNW) 14:54:34 434.975-435.025
CUBEBUG 2 02 Jul 14:49:00 14:51:38 16° 346° (NNW) 14:54:15 437.445
JAS-2 02 Jul 14:49:00 14:54:16 63° 254° (WSW) 15:00:02 435.910
SEEDS 02 Jul 14:59:22 15:01:50 15° 0° (N) 15:04:19 437.485
GOMX 1 02 Jul 15:00:10 15:03:19 18° 10° (N) 15:06:20 467.674
ZACube-1 02 Jul 15:01:26 15:04:07 17° 344° (NNW) 15:06:48 437.345
STARS 02 Jul 15:02:18 15:05:53 24° 88° (E) 15:09:29 437.465
CUSAT 1 02 Jul 15:05:20 15:08:00 17° 16° (NNE) 15:10:18 437.405
HO-68 02 Jul 15:07:46 15:14:13 38° 4° (N) 15:20:41 435.675
BEESAT 3 02 Jul 15:08:29 15:11:40 22° 221° (SW) 15:14:47 437.485
Cubesat XI-IV 02 Jul 15:10:38 15:15:39 41° 40° (NE) 15:20:42 437.490
UKube-1 02 Jul 15:11:59 15:15:20 22° 336° (NNW) 15:18:40 .
BRITE-PL 02 Jul 15:12:08 15:15:52 21° 19° (NNE) 15:19:25 437.365/2234.400
Oscar 11 02 Jul 15:15:05 15:17:49 17° 353° (N) 15:20:33 145.826/435.025
AISAT 02 Jul 15:15:21 15:18:57 24° 332° (NNW) 15:22:29 437.250
SPROUT 02 Jul 15:15:23 15:19:23 37° 314° (NW) 15:23:19 437.525
O/OREOS (USA 219) 02 Jul 15:15:33 15:20:04 75° 217° (SW) 15:24:35 437.305
AAUSAT CUBESAT 2 02 Jul 15:16:21 15:18:45 15° 1° (N) 15:21:10 437.432
BEESAT 2 02 Jul 15:17:22 15:20:35 22° 221° (SW) 15:23:46 435.950
Gurwin Techsat 1B 02 Jul 15:20:29 15:24:51 24° 277° (W) 15:29:09 435.225
CINEMA 3 02 Jul 15:21:24 15:23:54 15° 2° (N) 15:26:23 145.822/145.860
BEESAT 02 Jul 15:26:49 15:31:40 90° 328° (NNW) 15:36:31 436.000
Oscar 19 02 Jul 15:37:43 15:39:20 11° 294° (WNW) 15:40:47 437.125/150
FUNcube-1 02 Jul 15:38:29 15:40:56 15° 353° (N) 15:43:23 145.935
ESTCUBE 1 02 Jul 15:39:01 15:42:40 24° 333° (NNW) 15:46:18 437.505/2401.250
HUMSAT D 02 Jul 15:39:12 15:41:46 16° 345° (NNW) 15:44:20 437.325/437.525
COMPASS 1 02 Jul 15:40:00 15:42:29 16° 8° (N) 15:45:01 437.405
CUBEBUG 1 02 Jul 15:40:38 15:44:09 23° 332° (NNW) 15:47:37 437.445
ITAMSAT 1 02 Jul 15:40:47 15:44:36 20° 281° (W) 15:48:21 435.822/435.867
KKS-1 02 Jul 15:40:47 15:45:08 48° 102° (ESE) 15:49:27 437.445
MOZHAYETS 4 02 Jul 15:41:27 15:44:43 19° 79° (E) 15:48:01
SWISSCUBE 02 Jul 15:42:06 15:46:57 75° 301° (WNW) 15:51:47 437.505
CUTE 1.7 + AOD 2 02 Jul 15:42:14 15:44:55 17° 13° (NNE) 15:47:37 437.475
UWE-3 02 Jul 15:44:39 15:47:04 15° 357° (N) 15:49:28 435.000/436.395/437.385
CANX-2 02 Jul 15:45:07 15:47:51 17° 15° (NNE) 15:50:35 2200.000
ITUPSAT 1 02 Jul 15:46:17 15:51:09 76° 299° (WNW) 15:55:58 437.325
AIST 1 02 Jul 15:46:42 15:50:55 45° 97° (E) 15:55:10
DELFI C3 02 Jul 15:47:58 15:50:11 14° 357° (N) 15:52:24 145.870
Cosmos 2504 02 Jul 15:49:07 15:56:29 76° 62° (ENE) 16:04:21 435.465 / 435.565
YUBILEINY 02 Jul 15:51:23 15:59:30 44° 277° (W) 16:07:34 435.215
DANDE 02 Jul 15:53:07 15:56:44 23° 25° (NNE) 15:59:40 436.750
HORYU 2 02 Jul 15:54:40 15:58:42 33° 265° (W) 16:02:45 437.375
DOVE 4 02 Jul 15:54:59 15:58:07 19° 19° (NNE) 16:01:09 437.250
AO-7 02 Jul 16:02:39 16:10:39 45° 263° (W) 16:18:38 29.400- 29.500
VELOX 1 02 Jul 16:05:21 16:08:34 20° 344° (NNW) 16:11:45 145.980
TISAT 1 02 Jul 16:06:17 16:09:55 28° 323° (NW) 16:13:30 437.305
50 SAT 02 Jul 16:07:36 16:09:46 15° 346° (NNW) 16:11:56 437.505
CUTE-I 02 Jul 16:16:34 16:21:55 67° 55° (NE) 16:27:19 437.470
Cosmos 2499 02 Jul 16:17:49 16:24:07 31° 355° (N) 16:30:44 435.465 / 435.565
AIST 2 02 Jul 16:20:51 16:24:09 22° 222° (SW) 16:27:24 435.215
DX 1 02 Jul 16:23:14 16:26:11 18° 355° (N) 16:29:08 434.975-435.025
CUBEBUG 2 02 Jul 16:24:34 16:27:04 16° 10° (N) 16:29:36 437.445
Cosmos 2491 02 Jul 16:28:31 16:37:23 89° 110° (ESE) 16:46:16 435.465 / 435.565
PCSat 02 Jul 16:29:43 16:33:41 21° 121° (ESE) 16:37:43 145.827
GONETS M04 02 Jul 16:31:37 16:39:47 41° 24° (NNE) 16:47:56
SEEDS 02 Jul 16:33:24 16:36:25 19° 24° (NNE) 16:39:26 437.485
GOMX 1 02 Jul 16:36:23 16:40:21 26° 34° (NE) 16:44:08 467.674
JAS-2 02 Jul 16:36:24 16:40:41 23° 281° (W) 16:45:11 435.910
ZACube-1 02 Jul 16:36:46 16:39:14 15° 8° (N) 16:41:43 437.345
STARS 02 Jul 16:38:37 16:43:02 75° 111° (ESE) 16:47:25 437.465
UKube-1 02 Jul 16:47:26 16:50:19 18° 360° (N) 16:53:12 .
CUSAT 1 02 Jul 16:48:18 16:51:44 35° 45° (NE) 16:54:32 437.405
BRITE-PL 02 Jul 16:48:47 16:53:27 35° 42° (NE) 16:57:48 437.365/2234.400
Oscar 11 02 Jul 16:49:49 16:52:44 18° 16° (NNE) 16:55:42 145.826/435.025
Cubesat XI-IV 02 Jul 16:50:03 16:55:28 88° 63° (ENE) 17:00:56 437.490
AAUSAT CUBESAT 2 02 Jul 16:50:11 16:53:08 19° 24° (NNE) 16:56:08 437.432
AISAT 02 Jul 16:51:24 16:54:24 18° 356° (N) 16:57:23 437.250
SPROUT 02 Jul 16:51:28 16:54:37 20° 337° (NNW) 16:57:44 437.525
HO-68 02 Jul 16:54:09 17:00:57 48° 30° (NNE) 17:07:46 435.675
O/OREOS (USA 219) 02 Jul 16:55:05 16:59:04 31° 240° (WSW) 17:03:02 437.305
CINEMA 3 02 Jul 16:56:48 16:59:55 20° 26° (NNE) 17:03:00 145.822/145.860
SO-50 02 Jul 17:01:32 17:01:44 10° 115° (ESE) 17:02:05 436.795
BEESAT 02 Jul 17:04:47 17:09:15 38° 318° (NW) 17:13:41 436.000
FUNcube-1 02 Jul 17:13:20 17:16:01 17° 17° (NNE) 17:18:42 145.935
COMPASS 1 02 Jul 17:13:46 17:17:02 23° 32° (NNE) 17:20:21 437.405
HUMSAT D 02 Jul 17:13:52 17:16:16 15° 9° (N) 17:18:41 437.325/437.525
ESTCUBE 1 02 Jul 17:15:17 17:18:22 18° 357° (N) 17:21:28 437.505/2401.250
CUTE 1.7 + AOD 2 02 Jul 17:16:15 17:19:46 26° 36° (NE) 17:23:20 437.475
CUBEBUG 1 02 Jul 17:16:28 17:19:21 17° 356° (N) 17:22:15 437.445
KKS-1 02 Jul 17:17:32 17:21:56 59° 305° (NW) 17:26:18 437.445
MOZHAYETS 4 02 Jul 17:18:23 17:22:58 54° 103° (ESE) 17:27:33
CANX-2 02 Jul 17:19:09 17:22:44 27° 38° (NE) 17:26:22 2200.000
UWE-3 02 Jul 17:19:32 17:22:22 18° 21° (NNE) 17:25:14 435.000/436.395/437.385
SWISSCUBE 02 Jul 17:20:04 17:24:24 34° 323° (NW) 17:28:43 437.505
DELFI C3 02 Jul 17:21:23 17:24:02 17° 21° (NNE) 17:26:44 145.870
AIST 1 02 Jul 17:24:10 17:28:33 59° 300° (WNW) 17:32:58
ITUPSAT 1 02 Jul 17:24:17 17:28:38 34° 323° (NW) 17:32:57 437.325
DOVE 4 02 Jul 17:30:52 17:34:57 32° 42° (NE) 17:38:51 437.250
HORYU 2 02 Jul 17:35:25 17:36:46 11° 289° (WNW) 17:38:00 437.375
DANDE 02 Jul 17:36:42 17:40:52 56° 54° (NE) 17:44:03 436.750
CUBESAT XI-V 02 Jul 17:38:47 17:42:28 22° 83° (E) 17:46:11 437.345
VELOX 1 02 Jul 17:40:51 17:43:54 18° 8° (N) 17:46:56 145.980
STRAND 1 02 Jul 17:41:05 17:43:51 15° 72° (ENE) 17:46:45 437.568
50 SAT 02 Jul 17:41:08 17:43:10 14° 9° (N) 17:45:11 437.505
TISAT 1 02 Jul 17:41:53 17:44:42 17° 346° (NNW) 17:47:28 437.305
Cosmos 2504 02 Jul 17:42:42 17:49:46 51° 269° (W) 17:57:14 435.465 / 435.565
YUBILEINY 02 Jul 17:48:10 17:54:16 21° 304° (NW) 18:00:11 435.215
CUTE-I 02 Jul 17:57:02 18:02:17 50° 258° (WSW) 18:07:34 437.470
DX 1 02 Jul 17:58:02 18:01:15 20° 18° (NNE) 18:04:28 434.975-435.025
CUBEBUG 2 02 Jul 17:59:20 18:02:41 24° 33° (NNE) 18:06:01 437.445
AO-7 02 Jul 17:59:57 18:05:58 21° 290° (WNW) 18:11:51 29.400- 29.500
SEEDS 02 Jul 18:07:29 18:11:21 36° 47° (NE) 18:15:16 437.485
PCSat 02 Jul 18:10:58 18:16:06 44° 144° (SE) 18:21:16 145.827
ZACube-1 02 Jul 18:11:14 18:14:29 22° 31° (NNE) 18:17:44 437.345
Cosmos 2499 02 Jul 18:12:52 18:19:30 36° 25° (NNE) 18:26:34 435.465 / 435.565
GOMX 1 02 Jul 18:13:07 18:17:56 57° 56° (NE) 18:22:26 467.674
STARS 02 Jul 18:15:12 18:19:21 41° 313° (NW) 18:23:27 437.465
UKube-1 02 Jul 18:21:59 18:25:18 22° 23° (NNE) 18:28:38 .
AAUSAT CUBESAT 2 02 Jul 18:24:05 18:27:54 36° 47° (NE) 18:31:47 437.432
Oscar 11 02 Jul 18:24:11 18:27:57 30° 39° (NE) 18:31:44 145.826/435.025
BRITE-PL 02 Jul 18:26:21 18:31:38 80° 64° (ENE) 18:36:31 437.365/2234.400
AISAT 02 Jul 18:26:29 18:29:47 21° 19° (NNE) 18:33:05 437.250
Cosmos 2491 02 Jul 18:26:37 18:35:13 51° 319° (NW) 18:43:47 435.465 / 435.565
SPROUT 02 Jul 18:26:49 18:29:30 16° 1° (N) 18:32:08 437.525
GONETS M04 02 Jul 18:29:37 18:38:21 65° 54° (NE) 18:47:01
CUSAT 1 02 Jul 18:31:05 18:34:31 51° 255° (WSW) 18:37:19 437.405
Cubesat XI-IV 02 Jul 18:31:12 18:36:11 36° 267° (W) 18:41:09 437.490
CINEMA 3 02 Jul 18:32:18 18:36:21 39° 48° (NE) 18:40:18 145.822/145.860
O/OREOS (USA 219) 02 Jul 18:36:10 18:37:18 11° 262° (W) 18:38:18 437.305
SO-50 02 Jul 18:36:56 18:40:50 25° 137° (SE) 18:44:51 436.795
HO-68 02 Jul 18:41:07 18:48:18 83° 55° (NE) 18:55:31 435.675
BEESAT 02 Jul 18:42:26 18:46:12 23° 342° (NNW) 18:49:56 436.000
HUMSAT D 02 Jul 18:47:41 18:50:54 23° 32° (NNE) 18:54:08 437.325/437.525
FUNcube-1 02 Jul 18:47:47 18:51:22 28° 40° (NE) 18:54:58 145.935
COMPASS 1 02 Jul 18:48:00 18:52:03 49° 54° (NE) 18:56:08 437.405
PRISM 02 Jul 18:48:41 18:52:09 24° 89° (E) 18:55:37 437.425
ESTCUBE 1 02 Jul 18:50:36 18:54:01 21° 21° (NNE) 18:57:28 437.505/2401.250
CUTE 1.7 + AOD 2 02 Jul 18:50:58 18:55:09 62° 59° (ENE) 18:59:23 437.475
CUBEBUG 1 02 Jul 18:51:18 18:54:30 20° 19° (NNE) 18:57:42 437.445
CANX-2 02 Jul 18:53:59 18:58:11 67° 61° (ENE) 19:02:26 2200.000
KKS-1 02 Jul 18:54:15 18:58:01 27° 327° (NNW) 19:01:43 437.445
UWE-3 02 Jul 18:54:16 18:58:02 33° 44° (NE) 19:01:47 435.000/436.395/437.385
DELFI C3 02 Jul 18:54:38 18:58:13 31° 44° (NE) 19:01:51 145.870
MOZHAYETS 4 02 Jul 18:55:44 19:00:17 55° 305° (NW) 19:04:51
SWISSCUBE 02 Jul 18:57:37 19:01:16 22° 346° (NNW) 19:04:55 437.505
ITUPSAT 1 02 Jul 19:01:52 19:05:32 22° 346° (NNW) 19:09:12 437.325
AIST 1 02 Jul 19:03:21 19:07:03 25° 324° (NW) 19:10:46
DOVE 4 02 Jul 19:07:42 19:12:23 80° 63° (ENE) 19:16:50 437.250
50 SAT 02 Jul 19:13:46 19:16:41 21° 32° (NNE) 19:19:38 437.505
VELOX 1 02 Jul 19:15:41 19:19:21 26° 31° (NNE) 19:23:03 145.980
CUBESAT XI-V 02 Jul 19:16:04 19:20:48 64° 106° (ESE) 19:25:29 437.345
TISAT 1 02 Jul 19:16:33 19:19:13 17° 9° (N) 19:21:54 437.305
STRAND 1 02 Jul 19:19:42 19:24:34 39° 96° (E) 19:29:26 437.568
DANDE 02 Jul 19:20:11 19:23:50 34° 264° (W) 19:26:44 436.750
DX 1 02 Jul 19:32:38 19:36:36 34° 41° (NE) 19:40:35 434.975-435.025
CUBEBUG 2 02 Jul 19:34:41 19:38:48 53° 56° (NE) 19:42:54 437.445
Cosmos 2504 02 Jul 19:36:16 19:41:44 23° 294° (WNW) 19:47:18 435.465 / 435.565
CUTE-I 02 Jul 19:39:50 19:43:40 19° 283° (WNW) 19:47:27 437.470
SEEDS 02 Jul 19:42:43 19:46:56 81° 249° (WSW) 19:51:12 437.485
YUBILEINY 02 Jul 19:45:19 19:47:35 11° 334° (NNW) 19:49:41 435.215
ZACube-1 02 Jul 19:46:10 19:50:12 49° 54° (NE) 19:54:15 437.345
GOMX 1 02 Jul 19:51:21 19:56:12 52° 258° (WSW) 20:00:45 467.674
STARS 02 Jul 19:51:38 19:55:00 22° 336° (NNW) 19:58:21 437.465
PCSat 02 Jul 19:53:44 19:59:08 67° 168° (SSE) 20:04:33 145.827
UKube-1 02 Jul 19:56:34 20:00:38 40° 46° (NE) 20:04:44 .
AAUSAT CUBESAT 2 02 Jul 19:59:07 20:03:18 79° 249° (WSW) 20:07:32 437.432
Oscar 11 02 Jul 19:59:24 20:03:42 74° 62° (ENE) 20:08:03 145.826/435.025
SPROUT 02 Jul 20:01:12 20:04:22 20° 24° (NNE) 20:07:34 437.525
AISAT 02 Jul 20:01:24 20:05:28 35° 43° (NE) 20:09:33 437.250
M-CUBED/EXP-1 PRIME 02 Jul 20:03:34 20:04:55 12° 88° (E) 20:06:24 437.505
BRITE-PL 02 Jul 20:05:40 20:10:35 38° 266° (W) 20:15:10 437.365/2234.400
Cosmos 2499 02 Jul 20:06:52 20:14:10 60° 53° (NE) 20:22:01 435.465 / 435.565
CINEMA 3 02 Jul 20:09:03 20:13:26 74° 251° (WSW) 20:17:42 145.822/145.860
CUSAT 1 02 Jul 20:15:03 20:16:07 11° 282° (WNW) 20:17:03 437.405
Cubesat XI-IV 02 Jul 20:15:15 20:17:59 14° 291° (WNW) 20:20:35 437.490
SO-50 02 Jul 20:15:57 20:20:34 42° 160° (SSE) 20:25:16 436.795
BEESAT 02 Jul 20:19:19 20:22:50 21° 6° (N) 20:26:22 436.000
HUMSAT D 02 Jul 20:22:02 20:26:01 50° 55° (NE) 20:30:02 437.325/437.525
FUNcube-1 02 Jul 20:23:08 20:27:18 74° 63° (ENE) 20:31:28 145.935
COMPASS 1 02 Jul 20:23:39 20:27:46 54° 257° (WSW) 20:31:55 437.405
PRISM 02 Jul 20:23:59 20:28:14 76° 112° (ESE) 20:32:28 437.425
ESTCUBE 1 02 Jul 20:25:49 20:30:01 37° 44° (NE) 20:34:14 437.505/2401.250
CUBEBUG 1 02 Jul 20:25:56 20:29:57 34° 42° (NE) 20:33:58 437.445
Cosmos 2491 02 Jul 20:26:12 20:34:16 37° 349° (N) 20:42:17 435.465 / 435.565
GONETS M04 02 Jul 20:26:51 20:35:30 67° 262° (W) 20:44:04
CUTE 1.7 + AOD 2 02 Jul 20:27:14 20:31:17 42° 261° (W) 20:35:23 437.475
DELFI C3 02 Jul 20:28:57 20:33:00 87° 66° (ENE) 20:37:05 145.870
HO-68 02 Jul 20:29:45 20:36:39 48° 260° (W) 20:43:35 435.675
UWE-3 02 Jul 20:30:04 20:34:18 90° 292° (WNW) 20:38:29 435.000/436.395/437.385
CANX-2 02 Jul 20:30:24 20:34:24 39° 263° (W) 20:38:25 2200.000
KKS-1 02 Jul 20:30:31 20:33:35 18° 351° (N) 20:36:38 437.445
MOZHAYETS 4 02 Jul 20:33:01 20:36:53 26° 328° (NNW) 20:40:44
SWISSCUBE 02 Jul 20:34:19 20:37:54 21° 11° (N) 20:41:31 437.505
ITUPSAT 1 02 Jul 20:38:36 20:42:12 21° 10° (N) 20:45:49 437.325
AIST 1 02 Jul 20:43:20 20:46:11 16° 350° (N) 20:49:02
DOVE 4 02 Jul 20:46:17 20:50:34 34° 266° (W) 20:54:39 437.250
50 SAT 02 Jul 20:46:59 20:50:42 48° 55° (NE) 20:54:26 437.505
TISAT 1 02 Jul 20:50:29 20:53:55 24° 33° (NNE) 20:57:22 437.305
VELOX 1 02 Jul 20:50:56 20:55:18 54° 54° (NE) 20:59:42 145.980
CUBESAT XI-V 02 Jul 20:53:39 20:58:14 48° 309° (NW) 21:02:45 437.345
STRAND 1 02 Jul 20:59:02 21:04:16 80° 298° (WNW) 21:09:26 437.568
AUBIESAT-1 02 Jul 21:04:55 21:08:04 23° 101° (E) 21:11:27 437.475
DX 1 02 Jul 21:08:07 21:12:33 86° 63° (ENE) 21:16:58 434.975-435.025
CUBEBUG 2 02 Jul 21:11:30 21:15:38 48° 259° (WSW) 21:19:43 437.445
ANTELSAT 02 Jul 21:17:53 21:19:35 12° 73° (ENE) 21:21:26 437.575/2403.000
SEEDS 02 Jul 21:19:49 21:23:21 25° 272° (W) 21:26:52 437.485
ZACube-1 02 Jul 21:22:31 21:26:38 53° 256° (WSW) 21:30:44 437.345
STARS 02 Jul 21:27:23 21:30:17 18° 0° (N) 21:33:11 437.465
TIGRISAT 02 Jul 21:30:53 21:33:06 14° 76° (ENE) 21:35:27 435.000
Cosmos 2504 02 Jul 21:31:45 21:32:22 10° 322° (NW) 21:32:48 435.465 / 435.565
GOMX 1 02 Jul 21:31:55 21:35:21 18° 281° (W) 21:38:35 467.674
UKube-1 02 Jul 21:32:15 21:36:37 76° 248° (WSW) 21:41:01 .
SPROUT 02 Jul 21:35:38 21:39:39 39° 47° (NE) 21:43:41 437.525
AAUSAT CUBESAT 2 02 Jul 21:36:05 21:39:32 24° 272° (W) 21:42:59 437.432
Oscar 11 02 Jul 21:36:15 21:40:15 36° 265° (W) 21:44:16 145.826/435.025
PCSat 02 Jul 21:36:58 21:42:22 67° 193° (SSW) 21:47:47 145.827
M-CUBED/EXP-1 PRIME 02 Jul 21:37:11 21:40:47 36° 110° (ESE) 21:44:38 437.505
AISAT 02 Jul 21:37:16 21:41:46 89° 67° (ENE) 21:46:17 437.250
QB50P1 02 Jul 21:45:20 21:46:06 10° 70° (ENE) 21:47:01 145.935-145.965
BRITE-PL 02 Jul 21:47:45 21:50:30 14° 289° (WNW) 21:53:02 437.365/2234.400
CINEMA 3 02 Jul 21:47:48 21:51:21 23° 273° (W) 21:54:46 145.822/145.860
BEESAT 02 Jul 21:55:31 21:59:35 28° 29° (NNE) 22:03:40 436.000
SO-50 02 Jul 21:55:51 22:00:38 49° 184° (S) 22:05:27 436.795
HUMSAT D 02 Jul 21:57:49 22:01:50 51° 257° (WSW) 22:05:52 437.325/437.525
PRISM 02 Jul 21:59:33 22:03:31 39° 314° (NW) 22:07:26 437.425
NANOSAT C BR1 02 Jul 21:59:37 22:01:25 13° 74° (ENE) 22:03:19 145.865
FUNcube-1 02 Jul 22:00:10 22:04:00 34° 265° (W) 22:07:49 145.935
Cosmos 2499 02 Jul 22:00:18 22:07:39 69° 259° (W) 22:15:33 435.465 / 435.565
COMPASS 1 02 Jul 22:01:30 22:04:21 17° 280° (W) 22:07:10 437.405
CUBEBUG 1 02 Jul 22:01:31 22:06:00 86° 62° (ENE) 22:10:28 437.445
ESTCUBE 1 02 Jul 22:02:02 22:06:38 87° 246° (WSW) 22:11:15 437.505/2401.250
DELFI C3 02 Jul 22:05:02 22:08:34 28° 268° (W) 22:12:06 145.870
KKS-1 02 Jul 22:05:51 22:09:00 19° 15° (NNE) 22:12:11 437.445
CUTE 1.7 + AOD 2 02 Jul 22:06:04 22:08:21 14° 285° (WNW) 22:10:33 437.475
DUCHIFAT 1 02 Jul 22:07:06 22:09:12 14° 76° (ENE) 22:11:23 145.980
UWE-3 02 Jul 22:07:44 22:11:22 27° 269° (W) 22:14:58 435.000/436.395/437.385
UNISAT 6 02 Jul 22:09:17 22:12:40 22° 86° (E) 22:16:07 437.425
POLYITAN 1 02 Jul 22:09:29 22:11:47 14° 77° (ENE) 22:14:10 437.675
CANX-2 02 Jul 22:09:33 22:11:32 13° 287° (WNW) 22:13:26 2200.000
MOZHAYETS 4 02 Jul 22:09:48 22:12:58 19° 352° (N) 22:16:09
SWISSCUBE 02 Jul 22:10:31 22:14:44 31° 34° (NE) 22:18:58 437.505
ITUPSAT 1 02 Jul 22:14:51 22:19:04 31° 34° (NE) 22:23:19 437.325
HO-68 02 Jul 22:21:03 22:26:20 21° 287° (WNW) 22:31:29 435.675
50 SAT 02 Jul 22:21:37 22:25:23 49° 257° (WSW) 22:29:10 437.505
AIST 1 02 Jul 22:22:34 22:25:32 17° 15° (NNE) 22:28:30
GONETS M04 02 Jul 22:23:43 22:31:07 32° 289° (WNW) 22:38:22
TISAT 1 02 Jul 22:24:57 22:29:06 54° 55° (NE) 22:33:15 437.305
Cosmos 2491 02 Jul 22:25:32 22:33:41 39° 20° (NNE) 22:41:49 435.465 / 435.565
VELOX 1 02 Jul 22:27:34 22:31:58 52° 256° (WSW) 22:36:22 145.980
DOVE 4 02 Jul 22:28:02 22:29:43 12° 289° (WNW) 22:31:15 437.250
CUBESAT XI-V 02 Jul 22:31:05 22:34:56 25° 332° (NNW) 22:38:43 437.345
BUGSAT 1 02 Jul 22:32:50 22:35:09 15° 78° (ENE) 22:37:32 437.445
STRAND 1 02 Jul 22:38:21 22:43:05 37° 323° (NW) 22:47:48 437.568
QB50P2 02 Jul 22:39:09 22:42:19 20° 84° (E) 22:45:33 145.880/145.840
AUBIESAT-1 02 Jul 22:39:32 22:43:23 72° 122° (ESE) 22:47:33 437.475
POPSAT HIP 1 02 Jul 22:40:24 22:43:34 20° 85° (E) 22:46:46 437.405
DX 1 02 Jul 22:45:19 22:49:16 31° 266° (W) 22:53:12 434.975-435.025
CUBEBUG 2 02 Jul 22:50:45 22:53:21 15° 281° (WNW) 22:55:52 437.445
ANTELSAT 02 Jul 22:53:39 22:57:40 37° 97° (E) 23:01:45 437.575/2403.000
ZACube-1 02 Jul 23:01:08 23:03:56 17° 280° (W) 23:06:40 437.345
STARS 02 Jul 23:02:13 23:05:34 22° 24° (NNE) 23:08:56 437.465
TIGRISAT 02 Jul 23:06:55 23:11:02 42° 99° (E) 23:15:11 435.000
UKube-1 02 Jul 23:09:49 23:13:26 24° 271° (W) 23:17:01 .
SPROUT 02 Jul 23:11:13 23:15:33 77° 248° (WSW) 23:19:54 437.525
M-CUBED/EXP-1 PRIME 02 Jul 23:12:05 23:15:53 74° 310° (NW) 23:20:00 437.505
AISAT 02 Jul 23:14:53 23:18:53 30° 268° (W) 23:22:50 437.250
Oscar 11 02 Jul 23:16:02 23:17:44 12° 288° (WNW) 23:19:21 145.826/435.025
QB50P1 02 Jul 23:19:31 23:23:20 32° 94° (E) 23:27:10 145.935-145.965
PCSat 02 Jul 23:20:15 23:25:23 43° 217° (SW) 23:30:29 145.827
YUBILEINY 02 Jul 23:29:02 23:32:38 13° 36° (NE) 23:36:26 435.215
BEESAT 02 Jul 23:32:06 23:36:48 56° 53° (NE) 23:41:32 436.000
NANOSAT C BR1 02 Jul 23:34:29 23:38:28 38° 98° (E) 23:42:26 145.865
PRISM 02 Jul 23:35:00 23:38:10 21° 336° (NNW) 23:41:18 437.425
HUMSAT D 02 Jul 23:35:54 23:38:32 16° 280° (W) 23:41:06 437.325/437.525
SO-50 02 Jul 23:36:05 23:40:38 37° 207° (SSW) 23:45:12 436.795
CUBEBUG 1 02 Jul 23:38:51 23:42:51 31° 267° (W) 23:46:49 437.445
ESTCUBE 1 02 Jul 23:40:03 23:44:04 29° 269° (W) 23:48:06 437.505/2401.250
FUNcube-1 02 Jul 23:40:27 23:41:38 11° 289° (WNW) 23:42:43 145.935
KKS-1 02 Jul 23:40:45 23:44:40 31° 38° (NE) 23:48:36 437.445
DUCHIFAT 1 02 Jul 23:42:07 23:46:09 41° 99° (E) 23:50:10 145.980
POLYITAN 1 02 Jul 23:44:43 23:48:48 44° 100° (E) 23:52:51 437.675
MOZHAYETS 4 02 Jul 23:45:37 23:48:56 20° 16° (NNE) 23:52:17
UNISAT 6 02 Jul 23:45:53 23:50:12 69° 108° (ESE) 23:54:34 437.425
SWISSCUBE 02 Jul 23:47:18 23:52:05 67° 58° (ENE) 23:56:54 437.505
ITUPSAT 1 02 Jul 23:51:40 23:56:27 67° 57° (ENE) 00:01:17 437.325
Cosmos 2499 02 Jul 23:53:33 23:59:51 31° 285° (WNW) 00:06:25 435.465 / 435.565
50 SAT 02 Jul 23:58:37 00:00:56 15° 280° (W) 00:03:11 437.505
AIST 1 03 Jul 00:00:42 00:04:34 29° 41° (NE) 00:08:26
TISAT 1 03 Jul 00:00:50 00:04:59 49° 257° (WSW) 00:09:08 437.305
VELOX 1 03 Jul 00:06:26 00:09:32 18° 280° (W) 00:12:32 145.980
BUGSAT 1 03 Jul 00:07:40 00:11:41 46° 101° (ESE) 00:15:38 437.445
CUBESAT XI-V 03 Jul 00:07:56 00:11:10 19° 356° (N) 00:14:25 437.345
Oscar 19 03 Jul 00:10:10 00:13:02 15° 72° (ENE) 00:16:00 437.125/150
AUBIESAT-1 03 Jul 00:14:29 00:18:04 43° 322° (NW) 00:21:57 437.475
QB50P2 03 Jul 00:14:46 00:19:01 65° 107° (ESE) 00:23:14 145.880/145.840
POPSAT HIP 1 03 Jul 00:16:00 00:20:14 65° 107° (ESE) 00:24:26 437.405
STRAND 1 03 Jul 00:17:12 00:21:19 24° 347° (NNW) 00:25:25 437.568
GONETS M04 03 Jul 00:20:33 00:25:13 16° 317° (NW) 00:29:42
Cosmos 2491 03 Jul 00:23:43 00:32:26 60° 50° (NE) 00:41:07 435.465 / 435.565
DX 1 03 Jul 00:26:09 00:26:58 10° 290° (WNW) 00:27:39 434.975-435.025
ANTELSAT 03 Jul 00:30:29 00:34:48 72° 299° (WNW) 00:39:10 437.575/2403.000
STARS 03 Jul 00:37:06 00:41:14 40° 46° (NE) 00:45:22 437.465
TIGRISAT 03 Jul 00:43:46 00:48:01 63° 302° (WNW) 00:52:20 435.000
M-CUBED/EXP-1 PRIME 03 Jul 00:47:04 00:50:26 32° 331° (NNW) 00:54:02 437.505
SPROUT 03 Jul 00:48:44 00:52:19 24° 272° (W) 00:55:52 437.525
QB50P1 03 Jul 00:55:21 00:59:37 80° 297° (WNW) 01:03:50 145.935-145.965
AISAT 03 Jul 00:56:28 00:56:58 10° 291° (WNW) 00:57:19 437.250
RS-15 03 Jul 01:00:22 01:06:50 18° 94° (E) 01:13:50 29.354- 29.394
PCSat 03 Jul 01:03:49 01:07:46 20° 240° (WSW) 01:11:39 145.827
PRISM 03 Jul 01:09:47 01:12:26 17° 360° (N) 01:15:07 437.425
BEESAT 03 Jul 01:10:01 01:14:45 55° 256° (WSW) 01:19:31 436.000
NANOSAT C BR1 03 Jul 01:10:22 01:14:35 68° 300° (WNW) 01:18:46 145.865
KKS-1 03 Jul 01:16:26 01:20:54 74° 60° (ENE) 01:25:21 437.445
SO-50 03 Jul 01:16:40 01:20:13 20° 230° (SW) 01:23:42 436.795
DUCHIFAT 1 03 Jul 01:18:00 01:22:11 63° 302° (WNW) 01:26:20 145.980
YUBILEINY 03 Jul 01:19:39 01:26:24 27° 65° (ENE) 01:33:19 435.215
CUBEBUG 1 03 Jul 01:19:44 01:20:40 10° 291° (WNW) 01:21:28 437.445
POLYITAN 1 03 Jul 01:20:42 01:24:53 59° 303° (WNW) 01:29:02 437.675
MOZHAYETS 4 03 Jul 01:21:05 01:25:09 32° 39° (NE) 01:29:17
UNISAT 6 03 Jul 01:22:50 01:26:54 42° 311° (NW) 01:31:01 437.425
SWISSCUBE 03 Jul 01:25:35 01:30:13 45° 260° (W) 01:34:52 437.505
ITUPSAT 1 03 Jul 01:29:59 01:34:38 45° 260° (W) 01:39:17 437.325
AIST 1 03 Jul 01:38:28 01:42:55 73° 65° (ENE) 01:47:18
TISAT 1 03 Jul 01:39:02 01:41:44 16° 280° (W) 01:44:23 437.305
Gurwin Techsat 1B 03 Jul 01:39:46 01:43:50 22° 80° (E) 01:47:57 435.225
JAS-2 03 Jul 01:41:11 01:44:35 15° 67° (ENE) 01:48:19 435.910
BUGSAT 1 03 Jul 01:43:13 01:47:17 56° 304° (NW) 01:51:17 437.445
CUBESAT XI-V 03 Jul 01:43:48 01:47:21 21° 20° (NNE) 01:50:55 437.345
Cosmos 2499 03 Jul 01:47:14 01:50:43 14° 311° (NW) 01:54:06 435.465 / 435.565
Oscar 19 03 Jul 01:49:00 01:53:51 40° 97° (E) 01:58:43 437.125/150
AUBIESAT-1 03 Jul 01:49:12 01:52:17 25° 344° (NNW) 01:55:33 437.475
QB50P2 03 Jul 01:50:48 01:54:51 43° 310° (NW) 01:58:52 145.880/145.840
POPSAT HIP 1 03 Jul 01:52:00 01:56:03 43° 310° (NW) 02:00:03 437.405
AO-7 03 Jul 01:53:16 01:57:52 16° 60° (ENE) 02:02:41 29.400- 29.500
STRAND 1 03 Jul 01:55:15 01:59:19 24° 11° (N) 02:03:23 437.568
ITAMSAT 1 03 Jul 01:56:28 02:00:43 24° 84° (E) 02:04:59 435.822/435.867
ANTELSAT 03 Jul 02:07:26 02:11:11 29° 321° (NW) 02:14:56 437.575/2403.000
STARS 03 Jul 02:13:07 02:17:32 75° 249° (WSW) 02:21:57 437.465
TIGRISAT 03 Jul 02:20:40 02:24:16 27° 324° (NW) 02:27:54 435.000
Cosmos 2491 03 Jul 02:21:02 02:29:50 74° 258° (WSW) 02:38:31 435.465 / 435.565
M-CUBED/EXP-1 PRIME 03 Jul 02:21:41 02:24:36 23° 353° (N) 02:27:40 437.505
QB50P1 03 Jul 02:31:22 02:35:07 31° 319° (NW) 02:38:50 145.935-145.965
PRISM 03 Jul 02:43:36 02:46:44 20° 23° (NNE) 02:49:53 437.425
NANOSAT C BR1 03 Jul 02:46:21 02:49:58 28° 323° (NW) 02:53:32 145.865
BEESAT 03 Jul 02:50:07 02:53:38 20° 279° (W) 02:57:06 436.000
KKS-1 03 Jul 02:53:42 02:57:53 37° 263° (W) 03:02:03 437.445
DUCHIFAT 1 03 Jul 02:53:57 02:57:30 26° 324° (NW) 03:01:00 145.980
POLYITAN 1 03 Jul 02:56:44 03:00:15 26° 325° (NW) 03:03:44 437.675
MOZHAYETS 4 03 Jul 02:57:21 03:01:58 76° 62° (ENE) 03:06:37
Cosmos 2504 03 Jul 02:57:30 03:01:10 15° 52° (NE) 03:05:01 435.465 / 435.565
UNISAT 6 03 Jul 02:59:40 03:02:57 21° 334° (NNW) 03:06:13 437.425
RS-15 03 Jul 03:06:07 03:15:52 40° 123° (ESE) 03:26:07 29.354- 29.394
SWISSCUBE 03 Jul 03:06:18 03:09:19 16° 284° (WNW) 03:12:16 437.505
ITUPSAT 1 03 Jul 03:10:44 03:13:46 16° 284° (WNW) 03:16:44 437.325
YUBILEINY 03 Jul 03:13:16 03:21:39 57° 92° (E) 03:30:07 435.215
AIST 1 03 Jul 03:16:19 03:20:21 35° 268° (W) 03:24:20
BUGSAT 1 03 Jul 03:18:48 03:22:11 24° 327° (NNW) 03:25:31 437.445
CUBESAT XI-V 03 Jul 03:19:32 03:23:52 36° 43° (NE) 03:28:13 437.345
Gurwin Techsat 1B 03 Jul 03:19:39 03:24:57 58° 104° (ESE) 03:30:14 435.225
AUBIESAT-1 03 Jul 03:23:22 03:26:16 23° 7° (N) 03:29:20 437.475
JAS-2 03 Jul 03:25:58 03:31:31 38° 92° (E) 03:37:44 435.910
QB50P2 03 Jul 03:26:46 03:30:01 21° 333° (NNW) 03:33:14 145.880/145.840
POPSAT HIP 1 03 Jul 03:27:58 03:31:12 21° 333° (NNW) 03:34:24 437.405
Oscar 19 03 Jul 03:28:30 03:33:39 77° 299° (WNW) 03:38:48 437.125/150
HORYU 2 03 Jul 03:30:35 03:34:12 24° 87° (E) 03:37:51 437.375
STRAND 1 03 Jul 03:32:52 03:37:30 35° 35° (NE) 03:42:10 437.568
ITAMSAT 1 03 Jul 03:35:57 03:41:12 65° 108° (ESE) 03:46:25 435.822/435.867
ANTELSAT 03 Jul 03:44:04 03:46:59 18° 345° (NNW) 03:49:53 437.575/2403.000
AO-7 03 Jul 03:46:12 03:53:45 35° 89° (E) 04:01:20 29.400- 29.500
STARS 03 Jul 03:51:02 03:54:40 24° 272° (W) 03:58:17 437.465
M-CUBED/EXP-1 PRIME 03 Jul 03:55:41 03:58:39 25° 16° (NNE) 04:01:49 437.505
TIGRISAT 03 Jul 03:57:12 04:00:00 17° 348° (NNW) 04:02:49 435.000
QB50P1 03 Jul 04:07:09 04:10:03 18° 342° (NNW) 04:12:55 145.935-145.965
PRISM 03 Jul 04:17:28 04:21:22 38° 46° (NE) 04:25:19 437.425
Cosmos 2491 03 Jul 04:17:58 04:25:40 36° 285° (WNW) 04:33:15 435.465 / 435.565
CUTE-I 03 Jul 04:20:46 04:21:19 10° 62° (ENE) 04:22:02 437.470
NANOSAT C BR1 03 Jul 04:22:01 04:24:48 17° 346° (NNW) 04:27:33 145.865
DUCHIFAT 1 03 Jul 04:29:32 04:32:15 17° 348° (NNW) 04:34:58 145.980
POLYITAN 1 03 Jul 04:32:23 04:35:07 17° 349° (NNW) 04:37:48 437.675
KKS-1 03 Jul 04:33:46 04:35:49 13° 287° (WNW) 04:37:46 437.445
MOZHAYETS 4 03 Jul 04:35:17 04:39:35 37° 265° (W) 04:43:55
UNISAT 6 03 Jul 04:35:53 04:38:33 16° 358° (N) 04:41:14 437.425
Cosmos 2504 03 Jul 04:46:10 04:52:25 34° 79° (E) 04:58:52 435.465 / 435.565
Cubesat XI-IV 03 Jul 04:52:58 04:55:52 15° 70° (ENE) 04:58:53 437.490
BUGSAT 1 03 Jul 04:54:00 04:56:35 16° 350° (N) 04:59:08 437.445
AIST 1 03 Jul 04:55:16 04:56:55 12° 290° (WNW) 04:58:27
CUBESAT XI-V 03 Jul 04:56:15 05:01:01 88° 56° (ENE) 05:05:47 437.345
AUBIESAT-1 03 Jul 04:57:07 05:00:21 34° 30° (NNE) 05:03:48 437.475
Gurwin Techsat 1B 03 Jul 04:59:49 05:05:04 59° 308° (NW) 05:10:19 435.225
QB50P2 03 Jul 05:02:09 05:04:45 16° 356° (N) 05:07:21 145.880/145.840
POPSAT HIP 1 03 Jul 05:03:19 05:05:55 16° 356° (N) 05:08:29 437.405
HORYU 2 03 Jul 05:07:06 05:11:35 72° 110° (ESE) 05:16:03 437.375
Oscar 19 03 Jul 05:07:57 05:12:36 36° 323° (NW) 05:17:15 437.125/150
YUBILEINY 03 Jul 05:09:42 05:18:26 75° 300° (WNW) 05:27:13 435.215
STRAND 1 03 Jul 05:11:06 05:16:15 73° 58° (ENE) 05:21:27 437.568
JAS-2 03 Jul 05:11:22 05:17:18 88° 114° (ESE) 05:24:04 435.910
ITAMSAT 1 03 Jul 05:15:36 05:20:44 53° 311° (NW) 05:25:49 435.822/435.867
RS-15 03 Jul 05:15:45 05:26:34 63° 153° (SSE) 05:37:57 29.354- 29.394
ANTELSAT 03 Jul 05:19:47 05:22:32 17° 9° (N) 05:25:17 437.575/2403.000
M-CUBED/EXP-1 PRIME 03 Jul 05:29:35 05:32:57 46° 40° (NE) 05:36:34 437.505
TIGRISAT 03 Jul 05:32:45 05:35:31 17° 12° (NNE) 05:38:18 435.000
AO-7 03 Jul 05:39:33 05:48:00 73° 116° (ESE) 05:56:24 29.400- 29.500
QB50P1 03 Jul 05:42:04 05:44:41 16° 6° (N) 05:47:17 145.935-145.965
PRISM 03 Jul 05:52:24 05:56:38 77° 248° (WSW) 06:00:54 437.425
NANOSAT C BR1 03 Jul 05:56:44 05:59:23 16° 10° (N) 06:02:03 145.865
GONETS M04 03 Jul 05:58:17 06:03:31 18° 49° (NE) 06:08:55
CUTE-I 03 Jul 05:58:49 06:03:24 28° 87° (E) 06:08:02 437.470
DUCHIFAT 1 03 Jul 06:04:09 06:06:50 17° 11° (N) 06:09:31 145.980
POLYITAN 1 03 Jul 06:07:03 06:09:47 17° 12° (NNE) 06:12:31 437.675
UNISAT 6 03 Jul 06:11:04 06:14:08 20° 22° (NNE) 06:17:14 437.425
CUSAT 1 03 Jul 06:12:59 06:15:03 13° 81° (E) 06:17:02 437.405
Cosmos 2491 03 Jul 06:14:46 06:19:59 17° 313° (NW) 06:25:01 435.465 / 435.565
MOZHAYETS 4 03 Jul 06:15:59 06:18:12 13° 289° (WNW) 06:20:18
BRITE-PL 03 Jul 06:18:07 06:19:10 11° 65° (ENE) 06:20:21 437.365/2234.400
BUGSAT 1 03 Jul 06:28:10 06:30:49 17° 13° (NNE) 06:33:28 437.445
AUBIESAT-1 03 Jul 06:31:23 06:34:52 87° 58° (ENE) 06:38:37 437.475
Cubesat XI-IV 03 Jul 06:32:32 06:37:35 38° 95° (E) 06:42:38 437.490
CUBESAT XI-V 03 Jul 06:34:43 06:39:00 32° 269° (W) 06:43:15 437.345
QB50P2 03 Jul 06:36:29 06:39:25 19° 20° (NNE) 06:42:24 145.880/145.840
POPSAT HIP 1 03 Jul 06:37:38 06:40:34 19° 20° (NNE) 06:43:31 437.405
Cosmos 2504 03 Jul 06:37:54 06:45:03 80° 106° (ESE) 06:52:27 435.465 / 435.565
Gurwin Techsat 1B 03 Jul 06:39:46 06:44:25 31° 332° (NNW) 06:49:03 435.225
HORYU 2 03 Jul 06:43:53 06:48:06 42° 313° (NW) 06:52:20 437.375
Oscar 19 03 Jul 06:46:56 06:50:59 24° 347° (NNW) 06:55:00 437.125/150
STRAND 1 03 Jul 06:50:53 06:55:50 44° 261° (W) 07:00:48 437.568
ANTELSAT 03 Jul 06:54:46 06:58:14 25° 32° (NNE) 07:01:44 437.575/2403.000
ITAMSAT 1 03 Jul 06:55:02 06:59:32 29° 335° (NNW) 07:03:59 435.822/435.867
JAS-2 03 Jul 06:56:42 07:02:13 46° 318° (NW) 07:08:24 435.910
DANDE 03 Jul 07:03:26 07:07:53 23° 88° (E) 07:11:36 436.750
M-CUBED/EXP-1 PRIME 03 Jul 07:04:25 07:07:48 56° 242° (WSW) 07:11:27 437.505
TIGRISAT 03 Jul 07:07:41 07:11:13 26° 35° (NE) 07:14:49 435.000
YUBILEINY 03 Jul 07:08:25 07:16:41 44° 329° (NNW) 07:24:59 435.215
QB50P1 03 Jul 07:16:07 07:19:25 22° 29° (NNE) 07:22:44 145.935-145.965
Cosmos 2499 03 Jul 07:16:59 07:18:41 11° 41° (NE) 07:20:35 435.465 / 435.565
O/OREOS (USA 219) 03 Jul 07:22:37 07:25:22 16° 106° (ESE) 07:28:12 437.305
RS-15 03 Jul 07:27:08 07:38:16 72° 183° (S) 07:49:57 29.354- 29.394
PRISM 03 Jul 07:29:13 07:32:43 24° 271° (W) 07:36:12 437.425
NANOSAT C BR1 03 Jul 07:30:44 07:34:08 24° 33° (NNE) 07:37:35 145.865
AO-7 03 Jul 07:32:38 07:40:56 67° 322° (NW) 07:49:13 29.400- 29.500
DUCHIFAT 1 03 Jul 07:38:07 07:41:35 25° 34° (NE) 07:45:04 145.980
GOMX 1 03 Jul 07:38:33 07:41:48 20° 81° (E) 07:45:00 467.674
CUTE-I 03 Jul 07:38:56 07:44:22 73° 110° (ESE) 07:49:46 437.470
HO-68 03 Jul 07:40:24 07:45:59 24° 78° (ENE) 07:51:40 435.675
POLYITAN 1 03 Jul 07:41:07 07:44:39 26° 35° (NE) 07:48:12 437.675
UNISAT 6 03 Jul 07:46:10 07:50:04 36° 45° (NE) 07:54:00 437.425
GONETS M04 03 Jul 07:50:14 07:57:56 37° 77° (ENE) 08:05:43
CINEMA 3 03 Jul 07:50:16 07:51:44 12° 72° (ENE) 07:53:19 145.822/145.860
CUSAT 1 03 Jul 07:52:00 07:56:55 38° 101° (E) 08:00:43 437.405
COMPASS 1 03 Jul 07:53:00 07:55:16 14° 76° (ENE) 07:57:37 437.405
BRITE-PL 03 Jul 07:55:10 07:59:22 32° 90° (E) 08:03:20 437.365/2234.400
CUTE 1.7 + AOD 2 03 Jul 07:57:47 08:00:47 19° 81° (E) 08:03:52 437.475
CANX-2 03 Jul 08:00:50 08:04:02 20° 83° (E) 08:07:17 2200.000
BUGSAT 1 03 Jul 08:01:46 08:05:17 26° 36° (NE) 08:08:47 437.445
AUBIESAT-1 03 Jul 08:07:07 08:10:07 26° 256° (WSW) 08:13:16 437.475
QB50P2 03 Jul 08:10:37 08:14:26 33° 42° (NE) 08:18:14 145.880/145.840
POPSAT HIP 1 03 Jul 08:11:45 08:15:32 33° 43° (NE) 08:19:21 437.405
Cubesat XI-IV 03 Jul 08:12:47 08:18:13 84° 300° (WNW) 08:23:38 437.490
CUBESAT XI-V 03 Jul 08:16:26 08:17:59 11° 293° (WNW) 08:19:24 437.345
Gurwin Techsat 1B 03 Jul 08:19:06 08:23:16 24° 356° (N) 08:27:26 435.225
HORYU 2 03 Jul 08:20:31 08:23:59 23° 336° (NNW) 08:27:27 437.375
Oscar 19 03 Jul 08:25:06 08:29:07 24° 12° (NNE) 08:33:08 437.125/150
BEESAT 3 03 Jul 08:28:18 08:30:53 16° 132° (SE) 08:33:29 437.485
DOVE 4 03 Jul 08:29:54 08:33:37 28° 90° (E) 08:37:15 437.250
ANTELSAT 03 Jul 08:30:15 08:34:26 54° 55° (NE) 08:38:39 437.575/2403.000
Cosmos 2504 03 Jul 08:32:05 08:39:04 51° 314° (NW) 08:46:17 435.465 / 435.565
STRAND 1 03 Jul 08:33:09 08:36:25 16° 285° (WNW) 08:39:37 437.568
ITAMSAT 1 03 Jul 08:33:48 08:37:54 24° 359° (N) 08:41:59 435.822/435.867
BEESAT 2 03 Jul 08:38:21 08:40:58 17° 132° (SE) 08:43:37 435.950
M-CUBED/EXP-1 PRIME 03 Jul 08:41:15 08:43:30 16° 266° (W) 08:45:47 437.505
JAS-2 03 Jul 08:41:34 08:46:25 29° 343° (NNW) 08:51:43 435.910
TIGRISAT 03 Jul 08:43:15 08:47:28 61° 58° (ENE) 08:51:42 435.000
DANDE 03 Jul 08:44:33 08:50:35 62° 108° (ESE) 08:55:04 436.750
CUBEBUG 2 03 Jul 08:47:59 08:50:39 17° 80° (E) 08:53:24 437.445
SEEDS 03 Jul 08:48:19 08:52:05 30° 92° (E) 08:55:53 437.485
QB50P1 03 Jul 08:50:31 08:54:36 47° 52° (NE) 08:58:41 145.935-145.965
ZACube-1 03 Jul 08:56:50 08:59:10 15° 77° (ENE) 09:01:36 437.345
O/OREOS (USA 219) 03 Jul 08:59:38 09:03:53 44° 129° (SE) 09:08:11 437.305
AAUSAT CUBESAT 2 03 Jul 09:03:10 09:06:53 29° 92° (E) 09:10:38 437.432
Cosmos 2499 03 Jul 09:03:43 09:09:10 25° 69° (ENE) 09:14:54 435.465 / 435.565
NANOSAT C BR1 03 Jul 09:05:14 09:09:23 54° 55° (NE) 09:13:32 145.865
YUBILEINY 03 Jul 09:08:02 09:15:55 36° 359° (N) 09:23:51 435.215
Oscar 11 03 Jul 09:08:30 09:11:56 22° 85° (E) 09:15:24 145.826/435.025
DUCHIFAT 1 03 Jul 09:12:41 09:16:50 58° 57° (ENE) 09:21:00 145.980
POLYITAN 1 03 Jul 09:15:50 09:20:02 62° 58° (ENE) 09:24:14 437.675
GOMX 1 03 Jul 09:16:27 09:20:55 63° 106° (ESE) 09:25:07 467.674
CUTE-I 03 Jul 09:19:10 09:24:23 49° 314° (NW) 09:29:33 437.470
UNISAT 6 03 Jul 09:22:20 09:26:38 84° 247° (WSW) 09:30:57 437.425
AO-7 03 Jul 09:25:04 09:33:01 49° 348° (NNW) 09:40:57 29.400- 29.500
CINEMA 3 03 Jul 09:26:20 09:30:14 36° 96° (E) 09:34:08 145.822/145.860
HUMSAT D 03 Jul 09:27:43 09:29:54 14° 77° (ENE) 09:32:10 437.325/437.525
COMPASS 1 03 Jul 09:27:59 09:32:02 43° 99° (E) 09:36:07 437.405
HO-68 03 Jul 09:28:23 09:35:25 55° 104° (ESE) 09:42:28 435.675
DELFI C3 03 Jul 09:28:53 09:32:08 23° 87° (E) 09:35:26 145.870
FUNcube-1 03 Jul 09:33:17 09:36:34 22° 86° (E) 09:39:54 145.935
CUTE 1.7 + AOD 2 03 Jul 09:33:21 09:37:35 58° 104° (ESE) 09:41:50 437.475
BRITE-PL 03 Jul 09:33:43 09:38:29 84° 295° (WNW) 09:42:53 437.365/2234.400
CUSAT 1 03 Jul 09:34:13 09:39:26 69° 300° (WNW) 09:43:21 437.405
BUGSAT 1 03 Jul 09:36:05 09:40:15 63° 59° (ENE) 09:44:23 437.445
CANX-2 03 Jul 09:36:30 09:40:47 63° 107° (ESE) 09:45:02 2200.000
RS-15 03 Jul 09:38:54 09:49:52 58° 214° (SSW) 10:01:19 29.354- 29.394
UWE-3 03 Jul 09:41:50 09:45:27 28° 91° (E) 09:49:07 435.000/436.395/437.385
ESTCUBE 1 03 Jul 09:42:08 09:42:41 10° 67° (ENE) 09:43:22 437.505/2401.250
50 SAT 03 Jul 09:44:05 09:45:15 11° 74° (ENE) 09:46:30 437.505
GONETS M04 03 Jul 09:45:07 09:53:53 78° 103° (ESE) 10:02:38
QB50P2 03 Jul 09:45:44 09:50:00 86° 67° (ENE) 09:54:17 145.880/145.840
POPSAT HIP 1 03 Jul 09:46:50 09:51:06 86° 65° (ENE) 09:55:22 437.405
AIST 2 03 Jul 09:46:53 09:49:54 19° 134° (SE) 09:52:58 435.215
Cubesat XI-IV 03 Jul 09:52:59 09:57:59 39° 322° (NW) 10:02:58 437.490
HORYU 2 03 Jul 09:56:29 09:59:28 18° 359° (N) 10:02:29 437.375
Gurwin Techsat 1B 03 Jul 09:57:38 10:02:03 27° 20° (NNE) 10:06:29 435.225
Oscar 19 03 Jul 10:02:51 10:07:28 35° 36° (NE) 10:12:06 437.125/150
VELOX 1 03 Jul 10:03:50 10:06:27 15° 77° (ENE) 10:09:09 145.980
BEESAT 3 03 Jul 10:04:14 10:07:56 33° 154° (SSE) 10:11:39 437.485
ANTELSAT 03 Jul 10:07:10 10:11:21 49° 258° (WSW) 10:15:33 437.575/2403.000
DOVE 4 03 Jul 10:07:38 10:11:59 90° 347° (NNW) 10:16:11 437.250
ITAMSAT 1 03 Jul 10:11:49 10:16:15 28° 23° (NNE) 10:20:41 435.822/435.867
BEESAT 2 03 Jul 10:14:23 10:18:08 33° 154° (SSE) 10:21:52 435.950
DX 1 03 Jul 10:18:26 10:21:56 23° 87° (E) 10:25:28 434.975-435.025
TIGRISAT 03 Jul 10:20:22 10:24:27 42° 261° (W) 10:28:33 435.000
SEEDS 03 Jul 10:24:05 10:28:21 85° 295° (WNW) 10:32:38 437.485
CUBEBUG 2 03 Jul 10:24:13 10:28:19 52° 103° (ESE) 10:32:27 437.445
JAS-2 03 Jul 10:25:40 10:30:17 27° 9° (N) 10:35:18 435.910
QB50P1 03 Jul 10:26:15 10:30:27 59° 254° (WSW) 10:34:40 145.935-145.965
Cosmos 2504 03 Jul 10:27:50 10:34:15 33° 343° (NNW) 10:40:54 435.465 / 435.565
DANDE 03 Jul 10:28:11 10:33:55 51° 308° (NW) 10:38:11 436.750
ZACube-1 03 Jul 10:32:35 10:36:36 45° 101° (E) 10:40:41 437.345
O/OREOS (USA 219) 03 Jul 10:38:38 10:43:09 86° 332° (NNW) 10:47:41 437.305
AAUSAT CUBESAT 2 03 Jul 10:38:43 10:42:58 86° 294° (WNW) 10:47:12 437.432
NANOSAT C BR1 03 Jul 10:41:11 10:45:19 49° 257° (WSW) 10:49:28 145.865
UKube-1 03 Jul 10:41:27 10:45:15 29° 92° (E) 10:49:04 .
Oscar 11 03 Jul 10:44:29 10:48:52 69° 108° (ESE) 10:53:13 145.826/435.025
SPROUT 03 Jul 10:45:20 10:45:51 10° 69° (ENE) 10:46:30 437.525
DUCHIFAT 1 03 Jul 10:48:43 10:52:49 45° 259° (W) 10:56:54 145.980
AISAT 03 Jul 10:50:06 10:53:52 26° 89° (E) 10:57:38 437.250
POLYITAN 1 03 Jul 10:52:05 10:56:10 42° 261° (W) 11:00:13 437.675
